GFSMW_sfc_temp_021.txt.gz
Temp
86 87 87 87 86 85 84 83 82 83 83 82 82 83 83 85 84 86 84 84 84 84 84 83 81 82 83 83 81 82 79 82 80 78 82 83 83 82 84 85 84 82 83
84 84 85 86 86 84 83 82 82 83 82 84 83 85 84 85 85 86 84 84 85 84 83 83 83 82 82 79 80 79 80 80 79 76 75 76 79 83 83 83 83 81 83
83 84 84 85 85 83 82 82 82 83 82 83 83 82 82 82 82 83 84 84 84 84 82 82 83 80 82 82 80 79 76 77 79 76 76 74 74 76 82 80 82 79 81
86 87 85 85 85 85 85 84 83 82 83 82 82 80 82 82 84 84 84 84 83 83 83 82 81 80 82 79 80 80 78 76 76 78 78 76 75 73 74 81 82 82 80
87 87 87 87 87 86 86 85 83 82 83 82 82 82 81 84 84 82 80 80 80 82 82 81 80 79 82 79 78 76 76 78 78 77 78 76 77 72 74 73 77 82 81
88 89 89 89 87 87 86 85 82 81 82 81 81 80 81 81 81 80 80 80 81 81 80 80 79 79 79 78 78 77 76 76 77 78 76 77 76 76 75 72 73 73 79
88 88 87 86 85 85 85 85 82 80 81 81 81 80 80 80 79 79 80 79 80 80 78 78 78 79 78 78 78 76 76 76 76 75 77 78 78 78 76 74 74 72 77
88 88 87 86 85 85 84 83 81 80 81 81 81 81 81 82 78 80 82 80 82 82 80 79 79 78 78 78 76 78 78 76 76 75 74 77 78 77 76 75 73 71 74
88 88 89 87 87 85 83 83 82 81 82 82 81 80 81 80 80 79 76 80 78 81 79 79 77 77 77 77 77 79 77 76 76 76 75 75 78 78 77 76 75 72 69
89 89 90 88 88 87 86 85 83 81 82 82 82 82 80 79 80 77 72 76 78 78 78 77 78 77 77 77 76 77 77 75 77 77 74 74 78 77 77 76 76 74 71
88 89 89 89 88 88 87 86 84 83 83 82 82 81 80 78 73 77 71 71 73 74 76 75 76 77 77 77 75 75 76 74 75 75 74 74 75 77 77 75 75 74 72
89 89 89 88 88 87 88 86 87 86 85 84 82 79 76 71 76 77 75 71 71 72 73 73 75 76 77 77 75 75 76 74 74 75 74 74 77 73 73 73 71 74 73
85 86 88 86 86 86 85 87 87 88 88 85 82 78 71 75 72 71 71 70 71 70 71 72 73 74 76 75 75 75 75 74 73 75 75 75 75 73 73 74 74 75 73
83 83 85 85 85 85 84 85 86 89 88 86 81 76 73 73 74 72 69 67 67 68 69 70 71 73 74 75 75 75 74 74 76 76 76 76 75 74 73 73 71 71 71
82 82 83 84 83 83 83 84 85 86 87 82 80 77 73 74 73 72 70 67 67 71 71 70 71 73 74 77 75 75 75 75 75 77 76 76 74 70 70 74 73 71 71
82 83 83 83 82 82 82 83 83 84 84 80 78 76 73 73 73 73 72 70 67 68 70 69 70 73 76 69 67 72 76 76 75 75 76 76 70 69 66 65 65 67 68
84 83 83 82 82 83 83 82 82 83 80 79 77 73 73 73 73 74 71 71 69 70 71 71 71 73 73 66 65 66 76 76 76 75 74 73 77 68 72 68 64 64 63
86 85 85 85 84 86 85 83 83 80 78 77 75 74 73 73 74 73 71 71 71 71 73 73 73 73 75 64 62 64 73 73 75 74 74 73 72 71 68 69 70 71 71
82 83 87 86 83 84 83 81 80 79 78 76 74 74 74 73 72 71 71 72 70 72 73 74 73 73 74 59 59 61 65 64 66 71 71 70 70 63 60 67 67 68 69
83 82 83 84 84 82 83 80 78 77 76 76 75 75 74 73 72 72 71 72 71 71 76 74 73 69 72 58 57 60 62 62 62 64 64 60 64 57 57 65 66 65 67
80 82 83 82 80 81 80 78 77 76 78 78 76 74 74 73 73 71 71 70 70 72 72 72 71 70 70 63 56 56 60 61 60 63 70 71 56 53 53 53 65 63 61
80 81 77 76 77 78 79 76 76 77 76 73 73 72 72 73 73 71 71 71 70 70 69 68 65 73 72 58 56 55 55 61 68 71 73 68 53 51 52 56 54 54 56
76 79 78 75 75 76 76 74 68 71 73 74 72 70 71 71 71 69 70 69 69 70 68 64 67 71 67 65 53 52 52 54 67 72 63 53 50 50 54 54 53 53 65
74 77 77 75 72 73 70 72 72 73 73 72 71 72 71 70 70 71 73 71 71 70 69 67 70 65 64 68 65 64 65 56 62 57 66 60 58 53 56 60 62 65 64
71 71 71 71 68 70 70 71 70 69 72 72 72 71 70 69 64 60 61 69 67 64 71 70 67 65 69 69 61 62 69 70 62 62 67 66 65 65 65 65 64 64 64
70 71 70 71 68 67 69 70 70 70 71 70 71 71 71 69 65 63 60 45 45 44 45 46 61 65 51 46 47 46 44 44 44 62 66 66 65 65 64 63 63 64 60

GFSMW_sfc_temp_024.txt.gz
Temp
94 95 94 95 94 93 91 89 88 88 89 89 89 90 89 86 90 93 90 90 89 89 89 92 90 87 88 88 87 87 85 87 87 85 89 90 88 90 93 94 93 89 92
93 93 93 94 94 92 90 88 87 87 87 90 89 91 91 94 94 93 92 90 90 89 89 88 90 88 91 86 85 84 85 87 87 82 84 83 84 89 92 91 91 87 93
93 93 92 93 94 92 90 89 87 87 87 88 90 89 90 89 90 91 91 92 90 90 88 88 89 87 87 90 85 85 81 84 86 81 82 81 81 84 87 85 88 86 89
95 96 94 93 94 93 93 90 88 87 88 88 89 86 88 88 92 92 93 92 90 90 89 88 87 85 90 85 87 88 83 81 83 86 85 82 80 79 80 86 87 88 88
97 96 96 95 95 95 94 92 89 88 88 88 87 89 85 92 92 92 88 86 88 88 89 88 86 85 88 85 84 83 81 85 83 85 85 82 85 82 79 80 84 88 88
98 98 98 98 96 97 95 94 89 87 87 88 86 85 87 87 90 88 88 90 91 89 87 87 85 85 86 84 84 83 81 81 81 84 83 83 82 83 80 79 80 80 85
98 97 96 97 95 94 94 94 90 86 87 87 87 86 85 86 86 86 88 89 90 89 84 84 83 85 83 83 83 81 81 81 81 80 84 85 84 85 82 80 80 80 84
98 97 96 96 95 94 93 91 89 86 87 87 87 87 86 89 89 88 91 91 91 90 86 83 85 85 84 83 82 83 83 82 81 80 80 83 84 85 83 80 79 77 81
99 99 99 98 96 95 93 91 89 87 88 88 87 86 86 86 89 88 87 90 88 90 86 85 82 83 83 83 81 83 82 81 81 81 80 80 83 85 84 83 82 78 74
101 101 100 99 98 97 95 92 90 87 88 89 88 88 87 87 87 85 84 86 85 85 83 83 83 82 81 81 80 83 82 80 82 83 80 79 83 83 84 83 82 81 78
103 102 101 101 99 98 97 94 92 89 88 90 89 88 88 88 84 85 85 84 82 79 79 80 81 80 80 81 79 80 81 80 79 80 79 78 79 81 84 84 82 81 81
105 104 103 100 100 96 98 96 95 93 92 92 89 88 88 87 84 83 81 82 80 79 76 75 75 76 80 81 80 79 82 79 78 79 79 78 81 78 77 81 78 79 79
97 100 101 98 97 96 95 97 96 97 97 93 91 89 87 85 82 81 82 79 79 79 72 74 74 76 79 79 79 79 78 78 79 80 79 79 79 78 80 79 80 82 79
95 96 96 97 96 95 94 94 96 99 98 96 92 88 85 83 84 83 79 80 80 78 75 74 76 76 78 78 80 79 79 79 81 80 80 81 80 79 78 78 77 77 76
93 93 94 95 94 93 93 92 95 95 97 93 92 88 85 83 82 83 81 81 80 79 77 73 75 77 78 82 79 80 78 78 79 80 81 82 80 74 73 79 78 76 76
94 93 92 94 92 92 91 92 92 93 93 91 90 87 84 81 82 81 79 78 79 76 76 76 77 78 81 72 69 76 80 79 79 79 80 81 74 71 67 67 66 68 70
97 95 93 93 92 93 92 91 90 92 89 89 87 85 83 80 80 81 79 78 76 78 78 76 77 78 79 66 66 69 79 79 77 76 75 75 72 74 77 69 65 65 64
101 99 99 96 94 96 94 92 92 89 87 86 85 84 82 80 80 79 78 77 77 77 76 77 77 78 79 65 64 66 75 74 73 69 69 67 67 71 73 73 75 75 76
100 100 101 99 94 94 92 90 89 88 86 84 84 83 82 80 79 78 78 78 77 76 75 76 76 75 77 62 61 65 74 71 66 66 67 67 66 66 63 71 72 73 74
97 94 96 96 94 93 93 88 87 85 84 85 84 84 83 81 79 77 77 77 78 74 78 76 77 71 78 58 58 66 72 69 65 64 64 61 60 61 59 69 71 70 73
93 94 93 91 90 91 90 86 86 85 87 88 85 83 82 79 77 77 77 77 76 74 75 76 75 76 74 74 56 57 70 73 75 64 63 68 59 55 54 55 70 68 66
88 90 87 86 87 87 87 85 84 85 86 85 83 81 79 79 77 75 74 73 71 70 72 74 71 72 76 63 55 54 56 65 68 70 77 71 55 52 53 57 57 56 56
87 88 85 82 84 85 85 81 80 82 82 82 79 77 75 76 76 73 72 70 70 70 69 70 69 72 73 69 54 52 53 55 69 72 57 54 52 51 54 54 56 54 69
87 88 85 83 80 81 82 80 80 80 79 77 75 74 72 71 72 73 72 71 68 67 67 69 72 69 69 66 70 69 58 58 64 58 70 64 60 57 57 62 61 69 72
83 84 84 82 80 80 79 80 78 79 76 76 76 72 70 69 66 63 63 71 65 65 73 76 74 71 72 74 61 62 77 77 67 70 74 72 72 72 71 72 72 71 71
80 79 79 79 77 78 76 76 79 78 78 77 76 77 77 78 79 75 69 45 47 45 46 48 65 59 51 47 47 47 44 45 46 67 72 73 73 72 72 71 70 70 66

GFSMW_sfc_temp_030.txt.gz
Temp
96 98 97 98 96 94 90 88 87 86 87 86 83 84 84 84 86 87 87 84 84 86 84 85 80 82 81 81 79 81 78 79 79 76 77 78 82 81 82 83 82 83 85
95 95 95 96 95 92 89 87 86 86 86 86 83 84 85 86 86 87 85 84 85 84 85 83 80 80 78 79 81 79 76 76 79 74 73 71 75 78 83 80 81 80 82
95 94 94 94 95 91 88 87 85 85 85 86 85 85 86 86 82 83 83 84 86 86 84 85 83 81 81 80 81 80 79 74 77 79 74 69 68 73 78 78 77 78 77
98 98 96 94 94 92 91 87 86 85 85 85 85 84 83 83 85 86 85 85 87 87 85 85 83 81 81 80 79 80 78 76 73 77 80 78 75 69 69 75 76 77 78
99 99 98 95 96 95 92 89 85 85 85 84 84 84 84 86 87 87 84 84 84 88 85 84 84 82 82 79 79 78 77 77 75 75 76 76 75 74 71 68 71 75 76
101 100 101 98 96 97 94 91 85 83 84 84 84 83 82 83 85 85 83 84 84 84 86 85 83 82 82 79 78 78 79 77 76 75 75 74 73 72 72 69 71 72 74
102 99 98 98 94 93 93 92 85 83 84 85 84 83 83 83 82 85 85 83 84 84 82 83 81 81 80 80 78 76 77 76 76 76 74 75 75 76 74 72 70 70 73
101 100 98 98 96 94 92 91 85 83 84 84 84 83 83 86 86 85 86 86 86 86 82 83 82 81 80 80 78 77 77 76 76 75 75 74 75 76 75 73 70 67 69
102 102 101 100 98 94 91 90 86 84 84 85 84 84 84 83 85 85 84 87 84 86 83 82 81 81 80 78 78 77 76 76 76 76 76 75 75 76 75 74 73 71 64
103 103 103 100 99 98 94 92 89 85 85 86 85 85 85 84 85 85 84 84 85 84 82 81 81 80 79 79 78 76 78 76 76 76 75 74 75 74 75 74 73 71 69
104 104 103 102 99 99 96 93 90 87 86 86 86 85 85 86 84 86 85 84 84 83 80 80 80 80 79 78 76 76 76 75 74 75 75 74 75 73 74 74 73 72 71
106 106 105 103 100 97 97 94 93 91 89 88 86 85 85 85 85 84 86 86 83 82 80 80 79 79 78 78 76 75 77 76 74 74 74 74 77 73 73 73 72 72 71
103 105 104 101 99 97 94 94 94 94 93 89 88 86 85 85 84 84 84 85 84 82 82 80 78 78 78 77 76 76 76 76 74 75 74 74 74 73 73 73 72 71 71
98 101 102 100 100 97 93 93 94 96 94 92 89 86 85 85 85 85 84 85 84 82 80 79 78 78 78 78 77 77 76 75 76 76 75 75 74 73 72 71 69 69 68
100 96 100 99 98 96 92 93 94 93 94 90 88 87 86 85 85 84 84 84 84 82 80 79 78 78 78 80 76 77 76 74 75 75 76 76 76 73 70 71 70 68 66
98 99 96 97 96 96 93 92 93 93 92 89 88 87 86 85 85 84 84 83 83 81 79 78 77 77 80 73 71 75 76 76 74 74 75 76 74 70 67 67 66 67 64
97 99 97 94 94 97 94 92 92 93 91 88 88 87 86 84 84 84 83 82 80 80 78 77 77 76 76 69 68 71 76 75 75 74 74 75 76 71 70 66 65 65 65
100 100 103 100 98 102 101 95 95 91 89 88 88 87 86 85 84 83 82 81 81 78 77 77 76 76 77 64 65 68 73 72 74 74 75 73 73 71 69 68 67 67 67
100 100 105 105 98 98 97 93 92 91 90 88 88 88 87 84 83 81 81 80 78 77 76 77 76 75 76 62 62 65 70 69 71 73 74 74 73 69 63 67 66 66 66
101 101 102 104 105 97 100 92 91 89 88 89 89 88 86 84 82 81 80 81 80 77 77 76 75 71 73 61 60 63 68 67 70 72 72 64 69 61 60 66 67 65 66
99 100 100 99 98 96 96 89 89 87 89 90 89 87 85 83 83 80 79 78 77 76 74 73 73 74 72 72 58 58 69 70 69 69 69 72 59 57 56 58 66 65 63
98 101 98 96 95 93 90 87 85 87 87 87 86 84 83 84 83 78 77 75 73 73 72 71 71 73 72 64 56 56 57 63 69 70 70 69 58 54 54 56 62 58 59
94 96 97 91 91 91 87 85 84 85 85 84 82 81 81 80 78 76 75 72 73 71 69 70 70 69 72 72 57 53 54 57 65 66 57 53 53 53 54 56 60 57 62
91 92 89 87 85 86 87 84 84 83 82 81 80 80 78 75 75 74 75 73 71 70 70 71 72 71 71 71 68 67 61 57 62 58 60 61 62 62 63 61 58 62 64
86 87 84 83 84 84 83 84 83 82 80 80 77 75 75 73 66 60 58 71 64 64 72 73 74 72 72 72 65 64 66 66 64 65 68 64 65 65 64 65 66 65 64
82 80 77 76 77 80 79 79 81 81 78 75 76 74 71 71 68 66 62 47 48 46 46 50 67 60 53 48 47 47 48 51 56 64 66 65 66 66 63 63 64 63 63

GFSMW_sfc_temp_033.txt.gz
Temp
88 89 90 90 88 86 84 83 80 79 81 79 78 75 74 76 77 78 80 79 78 79 76 77 77 79 76 75 77 72 71 69 71 69 70 70 74 77 79 75 75 78 79
87 87 88 89 87 84 83 83 82 79 81 81 80 76 76 77 78 77 79 79 80 79 80 76 76 76 75 75 73 72 67 68 70 67 64 65 70 76 77 73 76 73 76
85 86 87 87 87 84 82 82 81 80 81 79 79 76 76 78 77 79 78 82 81 79 79 79 78 75 76 73 73 72 69 66 69 70 67 62 61 69 73 74 73 73 71
89 88 87 86 87 84 84 83 81 80 79 79 78 76 77 73 76 83 82 77 79 79 78 78 76 76 74 73 71 73 69 67 66 68 72 69 68 63 64 69 69 70 73
89 88 88 89 88 87 84 82 82 80 82 81 78 78 74 77 76 76 76 80 78 78 79 78 77 75 74 72 72 71 70 68 67 66 67 67 66 66 64 62 65 73 70
91 91 91 90 89 88 85 83 81 81 81 81 79 77 76 76 75 75 76 77 76 76 77 78 76 74 73 72 71 72 70 70 69 67 66 66 65 65 64 62 62 66 69
92 91 89 89 88 87 85 83 80 79 81 80 79 80 77 76 76 76 75 75 75 73 74 75 76 77 75 75 71 71 70 72 71 68 67 67 66 67 66 64 62 63 65
93 92 91 90 88 88 85 83 80 80 81 80 80 80 80 78 79 77 76 78 79 78 76 76 77 77 74 72 71 69 70 70 68 69 67 68 68 67 67 67 65 62 62
91 93 92 91 89 88 85 84 80 80 80 81 81 80 80 80 79 77 78 77 77 79 77 77 77 76 73 72 70 69 69 69 69 68 68 68 67 68 69 69 67 65 59
90 94 94 92 90 90 88 86 82 81 81 81 82 82 81 81 80 76 78 77 78 77 78 78 77 75 73 72 70 69 70 69 69 69 68 68 68 68 68 67 67 65 62
92 93 94 94 90 90 89 87 83 82 81 82 82 82 81 81 80 80 78 76 79 77 77 78 75 74 73 73 71 69 69 69 68 69 68 67 68 67 67 67 66 65 64
94 96 95 94 91 89 89 87 83 82 83 83 82 81 81 81 80 81 81 82 78 77 78 77 75 75 73 73 71 70 72 70 68 68 67 67 71 66 66 65 65 65 65
85 95 96 93 91 89 88 88 86 83 84 83 83 81 80 81 81 80 81 81 80 77 77 76 75 74 74 73 73 72 69 69 70 70 68 67 67 66 66 66 66 65 66
89 84 95 93 92 91 88 88 87 87 85 84 83 81 81 81 82 82 81 78 80 79 76 76 76 75 74 74 72 71 69 68 69 71 70 69 68 66 66 66 65 65 63
85 83 91 90 90 89 87 88 88 88 87 84 83 82 82 82 82 81 80 81 79 80 77 75 74 74 74 75 71 71 70 69 69 71 74 73 72 72 69 67 65 64 62
87 84 84 87 87 87 86 87 87 88 88 85 83 83 82 81 81 80 80 79 80 79 76 74 73 72 76 70 70 72 71 70 71 71 70 71 73 71 70 69 67 65 61
86 85 84 84 83 87 89 87 87 89 87 86 84 83 82 81 80 80 80 78 79 78 75 74 73 70 73 68 67 70 71 71 71 71 72 71 73 67 65 65 65 65 65
89 85 89 83 82 83 89 90 89 87 85 84 83 83 82 81 80 80 79 79 80 75 74 74 74 70 70 65 64 68 72 68 69 71 69 68 67 66 64 64 62 63 63
88 86 84 87 86 84 88 87 87 85 85 82 82 82 82 81 80 80 79 78 76 76 74 71 70 70 71 64 62 64 67 66 66 68 69 69 66 64 63 63 62 61 62
87 86 88 87 83 83 87 86 86 85 83 85 83 84 83 82 80 80 78 76 75 74 72 71 72 70 73 62 61 62 66 65 65 67 68 66 66 61 60 62 60 60 60
84 86 85 85 81 81 86 84 85 85 85 85 82 82 83 81 80 78 78 76 73 72 71 71 72 73 74 67 58 58 67 65 65 66 66 66 60 57 56 58 61 61 60
81 81 79 80 82 79 84 82 82 83 80 81 81 79 79 80 78 76 74 73 73 71 69 69 67 68 70 64 57 56 60 64 67 66 65 64 58 54 54 56 59 58 59
80 81 78 76 77 77 82 81 77 81 81 79 78 78 78 77 76 72 71 70 69 68 66 67 66 66 68 68 57 55 56 58 64 65 59 55 54 53 54 56 57 58 55
76 76 75 74 75 76 77 78 79 80 79 76 76 73 73 72 71 70 71 70 70 69 67 67 66 65 66 64 60 58 57 57 58 57 55 56 57 56 57 54 55 54 54
74 74 74 74 74 76 76 78 79 78 76 75 71 70 69 64 59 56 63 67 60 64 69 68 67 65 65 64 60 59 60 60 58 57 56 55 55 54 54 54 54 57 57
71 71 72 73 73 75 75 75 74 73 71 69 69 66 65 63 61 60 55 47 48 46 48 51 60 55 55 51 50 50 51 53 54 57 58 55 55 55 56 56 56 60 61

GFSMW_sfc_temp_036.txt.gz
Temp
85 84 85 85 85 81 81 81 80 79 79 74 73 72 72 73 74 75 78 77 76 78 76 75 75 74 73 75 73 71 69 67 67 67 67 68 71 71 73 73 73 74 74
83 83 83 84 84 81 81 81 79 79 79 79 79 75 74 74 75 75 77 77 77 78 76 74 73 73 75 72 71 70 65 66 67 65 61 63 68 73 72 73 73 71 73
82 83 83 83 84 83 80 81 79 79 80 79 77 73 73 73 73 73 75 76 80 79 77 75 74 72 72 71 70 69 67 65 66 66 65 60 60 66 68 73 69 69 68
85 84 85 83 84 83 83 82 79 78 79 79 79 77 73 74 75 75 76 77 77 77 77 76 74 73 72 71 70 70 67 65 65 66 69 65 65 61 62 67 67 67 69
85 85 85 86 85 85 83 83 81 78 79 79 80 78 74 76 75 74 80 73 74 76 77 75 74 73 71 71 70 68 67 66 65 64 65 64 64 62 62 60 64 67 67
86 87 88 88 86 86 84 83 80 79 79 79 79 77 77 73 74 72 72 72 74 75 75 76 73 72 71 70 69 68 67 66 66 64 64 64 63 62 62 60 61 62 65
87 86 86 86 85 84 83 82 79 79 79 79 78 78 77 76 74 73 73 71 72 71 73 73 72 72 71 70 69 68 67 66 66 66 65 64 64 64 62 62 59 61 63
88 87 86 86 86 84 82 81 79 79 80 79 79 78 78 78 77 74 75 76 77 77 75 75 75 73 72 70 69 67 67 67 66 66 65 65 65 65 64 64 62 59 59
89 88 88 88 87 84 82 81 79 80 80 80 79 79 79 78 77 74 76 75 76 76 76 76 75 74 72 70 68 67 67 67 66 66 65 65 65 65 65 65 64 63 57
90 90 90 88 87 87 84 83 81 80 80 81 80 80 79 80 78 76 76 76 77 77 75 76 75 74 72 71 68 67 67 66 66 67 65 64 64 65 65 65 64 62 61
87 90 91 91 89 88 85 82 81 81 80 81 80 80 79 79 80 78 77 77 77 77 76 76 76 74 72 70 69 67 68 66 66 67 66 66 65 65 64 64 63 62 62
89 90 93 93 89 87 87 83 82 81 81 81 81 80 80 79 79 79 80 78 78 75 77 77 76 74 73 71 70 68 70 67 66 66 65 66 68 65 63 63 63 63 62
82 86 91 89 88 87 87 85 83 82 82 82 81 80 79 79 79 79 80 78 78 74 75 76 75 74 73 72 71 70 68 68 67 67 66 66 65 64 63 63 62 63 64
84 80 84 89 90 87 87 86 84 83 83 82 81 79 79 79 79 80 79 80 80 75 75 75 75 75 74 73 72 71 68 68 68 68 68 70 68 65 65 66 63 63 62
83 88 90 90 90 87 86 86 86 84 84 81 80 80 80 80 80 79 79 79 79 79 76 75 74 73 73 74 71 72 70 69 67 67 69 72 71 70 68 68 65 63 62
82 83 88 92 90 88 86 86 86 84 84 81 80 81 80 79 79 79 78 78 77 78 74 74 73 71 75 70 68 72 71 69 69 68 66 72 71 70 68 68 67 66 63
80 79 80 90 90 89 88 85 85 86 83 82 81 81 80 78 78 79 78 76 77 76 72 72 72 71 74 67 67 69 70 68 69 67 66 68 73 69 69 66 64 64 64
83 80 81 85 89 90 88 87 86 84 82 81 81 81 79 79 79 78 77 76 77 76 73 72 72 71 72 65 64 67 71 68 67 67 67 68 68 66 66 65 64 64 63
82 83 82 85 84 82 87 85 83 83 82 81 81 81 80 79 78 77 77 77 77 76 74 72 72 71 71 63 63 64 69 65 65 66 67 68 66 63 62 64 63 62 62
80 80 80 80 80 86 87 85 82 82 81 82 82 81 81 79 78 78 78 78 77 75 73 72 73 70 72 61 60 62 66 66 66 64 67 63 65 60 59 65 63 62 62
79 81 78 81 84 83 82 82 82 81 84 84 83 82 81 80 80 79 79 76 76 73 72 71 70 69 68 66 59 58 67 66 65 65 65 66 59 56 56 58 63 62 60
77 76 77 77 76 77 83 81 80 84 84 83 81 80 80 81 80 79 76 75 74 72 70 67 67 68 69 61 56 56 60 63 65 65 65 65 57 54 54 56 58 57 59
76 75 75 74 74 72 81 80 82 83 79 81 80 79 80 80 79 76 74 73 72 69 68 67 66 66 68 65 57 55 57 58 65 66 61 55 52 51 54 54 56 56 55
72 72 73 73 73 72 74 81 77 78 80 80 77 77 77 75 75 75 73 71 70 68 67 67 66 66 66 65 61 58 57 56 59 58 58 57 57 54 56 56 55 55 54
70 71 70 70 70 71 72 73 76 78 75 75 74 73 72 72 66 60 65 69 65 66 67 67 67 65 65 64 59 58 60 60 57 58 58 56 54 54 53 53 54 52 52
69 69 69 70 70 71 71 73 75 74 73 71 68 66 65 63 61 60 56 49 50 51 49 54 61 58 56 50 49 47 48 49 50 57 56 54 53 54 53 53 52 52 55

GFSMW_sfc_temp_042.txt.gz
Temp
77 78 79 80 78 77 75 75 74 74 74 73 72 72 73 73 74 75 76 75 76 77 75 75 75 75 75 75 74 72 72 71 69 70 70 71 72 73 73 76 77 77 77
75 77 78 79 78 76 76 75 75 75 74 75 76 75 75 73 75 75 76 76 76 77 77 75 74 75 74 73 73 72 70 69 69 68 66 67 71 73 73 74 76 75 77
75 76 77 78 79 77 76 75 75 75 75 76 75 72 72 72 72 73 74 75 76 77 77 76 74 74 74 73 72 71 70 69 68 69 69 65 66 68 71 72 73 73 74
78 78 77 78 78 78 78 77 76 76 76 75 75 74 75 73 74 73 75 76 76 77 77 76 75 74 73 72 72 72 70 69 69 69 69 68 69 67 67 71 71 72 74
80 79 78 79 80 81 79 78 77 76 76 75 76 75 75 75 73 73 74 73 75 76 77 76 75 74 73 73 71 70 69 68 68 69 68 67 67 67 67 66 69 71 72
81 82 80 81 81 82 80 78 76 75 76 75 76 75 75 72 72 71 72 73 74 75 75 76 75 75 73 72 71 70 69 68 69 69 68 69 69 68 67 66 66 68 71
81 81 81 80 79 78 79 78 75 73 75 75 75 76 75 74 74 73 73 71 72 73 75 75 74 73 73 73 71 69 69 69 69 68 69 69 69 69 68 67 65 67 68
82 81 82 82 80 79 78 77 75 74 75 75 75 76 76 76 77 75 75 75 75 75 75 75 75 74 73 73 70 70 69 69 69 67 68 69 69 68 68 68 67 66 66
82 82 83 84 82 80 78 77 76 75 75 75 75 75 76 76 76 75 74 75 75 76 75 75 75 74 73 72 70 70 69 69 68 68 68 69 69 69 69 68 69 68 65
82 83 84 84 84 83 81 80 78 76 77 76 77 77 77 76 77 76 73 74 74 75 74 75 75 73 73 71 70 69 69 68 68 69 67 67 68 69 69 69 68 68 67
81 83 84 85 84 84 82 80 79 77 77 77 77 77 77 77 77 77 75 75 74 74 74 74 74 74 72 71 70 69 69 68 68 68 67 67 68 68 68 68 68 67 67
81 83 85 85 84 82 83 81 80 79 79 78 77 77 77 77 76 76 76 75 74 74 74 74 74 74 73 72 71 70 71 69 68 68 67 68 68 67 67 68 67 67 66
76 81 83 83 83 82 81 81 81 81 81 80 78 77 77 76 76 77 77 75 75 74 74 74 74 74 74 72 72 72 71 70 70 69 68 68 68 67 67 66 68 67 67
73 77 81 83 83 82 81 80 80 82 81 81 79 77 76 76 77 77 77 76 76 75 74 74 74 74 74 74 73 72 71 71 71 70 70 69 68 68 67 67 67 67 66
73 73 80 81 80 80 79 80 80 80 80 78 78 77 77 77 77 77 77 77 76 76 75 74 75 75 75 76 73 73 72 71 71 70 69 69 70 69 68 69 67 67 66
73 74 76 78 78 80 79 80 79 79 79 77 77 77 77 76 76 76 76 76 76 76 75 75 75 74 77 71 69 73 73 72 71 69 68 69 68 68 67 67 67 68 67
73 73 75 77 79 80 80 79 80 80 78 77 77 77 76 75 76 76 75 75 75 75 75 75 75 74 75 67 67 69 74 71 70 69 67 68 69 68 70 66 66 66 66
73 75 78 79 80 83 83 81 82 78 77 77 77 77 76 76 76 76 75 75 76 75 75 74 75 74 75 65 64 68 73 70 70 69 68 68 68 68 68 69 68 68 68
74 79 82 83 82 81 83 79 78 79 78 77 76 77 77 76 76 75 75 76 76 76 76 76 74 73 73 62 62 65 71 69 69 69 69 68 68 65 63 67 67 67 66
72 72 75 76 76 76 78 77 77 77 75 76 77 78 77 76 76 76 76 77 77 77 77 75 75 71 74 60 60 64 70 69 68 68 68 64 68 60 60 68 67 65 64
74 71 71 73 76 74 76 76 76 75 78 79 79 78 78 77 77 77 77 77 77 77 76 75 74 73 72 69 58 60 70 69 68 67 66 66 59 56 55 60 67 65 64
73 72 71 69 68 72 74 73 73 77 77 76 77 77 77 78 79 77 76 76 76 75 75 74 72 71 72 62 55 59 61 64 67 66 66 65 55 53 53 57 59 57 61
69 68 67 67 68 69 71 71 69 74 73 74 73 75 77 77 78 76 75 75 75 75 74 73 72 71 71 63 56 56 58 60 65 65 62 56 51 50 53 55 56 57 62
69 70 69 69 69 71 70 71 71 72 72 71 72 73 73 73 75 76 76 75 74 74 73 72 71 69 68 66 62 62 62 59 62 59 60 58 57 56 58 57 58 62 62
69 70 70 69 69 70 71 72 72 72 72 70 69 69 69 62 60 57 60 63 60 68 68 68 68 66 65 61 55 57 63 64 62 60 60 59 59 58 59 59 59 59 60
69 68 68 69 69 69 69 71 72 72 71 69 69 66 63 62 64 62 59 50 52 51 51 53 59 62 56 51 52 50 50 49 51 61 61 60 60 59 58 57 56 57 58

GFSMW_sfc_temp_045.txt.gz
Temp
84 85 85 86 85 84 82 81 80 80 81 81 81 82 82 84 85 86 85 85 85 85 84 79 85 82 82 84 83 84 82 84 83 84 83 85 86 85 87 90 90 88 88
83 82 84 84 84 83 82 81 80 80 80 82 82 84 84 86 86 87 86 86 86 85 85 81 84 84 86 82 82 81 82 83 82 82 82 79 83 86 87 87 88 87 89
82 83 82 83 84 83 82 81 80 81 80 82 82 82 84 83 83 84 86 86 86 86 85 80 82 84 84 85 82 81 80 82 81 79 82 78 79 82 85 83 87 85 88
84 86 85 84 84 84 84 82 81 81 81 81 81 80 82 82 85 85 87 87 86 86 86 85 84 83 86 83 83 83 82 80 80 80 82 81 81 80 77 83 84 84 85
86 86 86 86 86 87 85 84 82 80 81 81 81 82 81 85 87 86 84 83 85 85 86 85 84 84 85 83 82 80 79 82 83 82 80 79 82 80 81 79 80 83 85
88 88 88 88 87 88 87 85 81 80 81 81 80 80 80 82 83 83 84 85 86 87 84 85 84 84 84 83 83 81 80 80 80 83 82 82 81 80 80 79 79 80 83
88 88 87 87 86 86 86 85 81 78 80 80 81 81 80 81 81 82 84 85 86 86 85 83 83 85 83 83 82 80 80 79 80 78 83 83 83 84 83 82 81 80 83
88 87 88 88 86 86 85 84 81 79 80 81 80 80 81 84 84 84 86 86 87 87 86 84 85 84 84 83 81 82 82 80 80 78 79 83 83 83 83 82 80 77 79
88 88 89 90 89 86 84 84 81 79 80 81 80 80 81 81 83 83 83 86 85 88 86 85 84 84 84 83 81 83 79 79 79 79 78 80 83 83 83 82 83 81 77
90 90 91 90 90 89 87 86 83 80 81 82 82 82 82 82 83 83 82 83 85 84 86 84 84 84 83 82 80 82 80 78 80 81 77 77 82 80 82 82 82 81 80
92 92 92 92 91 91 89 86 85 83 82 82 82 82 82 83 83 84 83 83 84 83 84 84 84 83 82 82 80 80 81 78 78 78 77 77 78 80 81 81 81 80 80
93 93 94 92 91 90 90 88 87 85 84 84 82 82 82 83 83 83 84 84 82 83 83 84 84 83 83 82 80 80 81 78 78 78 77 77 79 75 77 79 77 79 78
88 90 92 91 89 89 87 88 88 89 88 85 84 82 82 82 81 82 83 84 82 83 83 83 83 83 83 82 81 81 80 80 80 79 78 78 77 75 78 77 78 79 78
87 88 88 89 89 88 86 86 87 90 89 87 85 81 80 81 82 82 82 83 82 82 82 82 83 83 84 83 83 81 80 80 80 80 80 79 78 77 75 74 75 76 77
85 85 87 88 86 86 85 85 87 87 88 84 84 82 82 82 82 82 82 83 83 82 82 82 82 83 84 86 82 82 81 79 79 80 80 80 78 74 73 74 74 75 75
88 88 86 87 86 86 85 84 85 86 86 83 83 82 82 81 81 81 82 82 82 82 82 81 82 82 86 75 71 79 82 80 80 79 79 79 73 71 68 68 70 75 75
88 89 86 86 86 87 86 85 84 86 84 82 82 82 82 80 80 82 81 80 81 82 81 81 81 81 82 69 68 70 84 82 80 80 80 79 77 72 73 66 66 68 68
89 90 91 90 89 91 91 87 88 84 82 82 82 82 82 80 81 81 80 80 82 81 81 81 81 81 82 67 66 69 81 82 81 80 80 78 76 73 72 72 73 74 75
91 90 94 94 91 90 90 86 86 84 83 82 82 82 82 81 81 80 79 80 81 81 81 82 81 80 81 64 63 68 80 82 80 80 79 77 75 69 64 73 75 74 76
90 89 91 91 91 87 92 85 84 83 82 83 83 83 82 81 80 80 80 81 81 82 84 83 82 77 81 64 61 67 82 80 80 77 77 66 70 62 60 69 70 73 74
87 87 87 87 86 88 87 83 84 83 84 86 86 84 83 81 81 81 81 81 81 82 81 81 82 82 78 78 59 60 79 81 76 73 71 71 60 57 56 62 72 71 74
85 86 84 84 84 83 82 82 81 84 86 86 85 83 83 84 84 80 78 81 78 75 78 79 78 78 78 64 57 58 63 69 73 71 70 70 57 55 54 59 62 59 63
83 83 81 79 79 81 81 81 82 83 83 82 82 82 82 83 83 81 80 80 79 76 76 76 76 74 73 73 57 55 57 59 69 71 67 59 52 52 53 57 57 58 68
79 80 78 74 73 76 80 81 81 82 82 81 81 82 81 80 82 84 84 82 82 80 75 75 74 73 72 69 63 60 60 60 64 63 61 58 58 57 59 59 59 66 69
73 75 74 74 73 76 77 79 80 81 81 82 82 80 83 77 72 68 72 81 81 79 81 76 73 67 62 60 58 60 64 65 60 62 62 61 61 62 61 61 62 63 64
72 72 72 72 73 77 76 74 78 80 79 77 76 69 68 68 66 64 61 51 52 52 52 53 60 62 53 49 50 50 50 52 55 62 62 62 62 61 61 61 61 62 63

GFSMW_sfc_temp_048.txt.gz
Temp
92 93 92 93 93 92 89 87 86 86 87 88 88 88 89 90 92 93 92 91 91 91 89 93 88 90 89 89 88 89 85 91 91 89 89 91 92 93 95 97 97 94 95
91 91 91 92 92 90 89 87 86 86 86 89 89 91 90 93 93 94 92 91 91 90 91 88 91 89 93 87 87 86 91 91 91 89 89 84 87 92 95 96 95 93 96
91 91 90 91 92 90 89 87 86 86 86 88 89 88 90 90 91 92 92 92 91 92 90 90 88 89 90 91 87 87 85 89 89 86 87 84 85 87 91 89 93 90 94
94 95 93 92 92 91 91 89 87 86 86 86 88 85 87 88 92 92 94 94 92 92 92 90 89 87 93 90 89 90 88 85 87 88 89 87 86 84 82 89 90 91 91
96 95 95 93 94 94 93 91 88 86 86 86 86 88 86 91 93 94 91 89 91 91 92 91 90 89 91 90 88 87 85 89 89 89 88 86 88 87 86 84 86 90 92
97 97 98 97 95 96 95 93 88 86 86 86 84 86 86 87 91 90 91 92 93 93 89 91 90 89 90 89 89 87 85 86 87 90 89 88 86 86 86 85 86 87 90
98 96 95 96 95 94 93 93 88 84 85 86 86 85 85 86 87 88 91 91 94 94 92 89 88 90 88 90 88 86 86 85 86 83 89 91 90 91 90 88 88 86 90
97 97 96 96 95 94 94 92 89 85 86 86 85 86 86 89 90 90 93 94 94 95 93 90 90 89 90 89 88 89 88 87 86 84 85 90 91 91 90 88 87 84 86
98 98 99 98 97 95 93 91 89 86 86 87 86 86 86 86 90 89 90 92 92 96 93 91 89 90 89 89 87 89 87 87 85 85 84 86 91 91 91 90 89 86 82
101 100 100 99 99 98 96 93 91 87 87 88 88 88 87 87 88 89 88 90 92 91 93 90 90 89 89 88 87 89 88 85 87 88 84 83 90 89 90 90 90 89 86
102 101 101 101 100 100 98 95 92 90 88 89 89 88 89 89 88 89 89 89 89 90 89 90 89 89 89 88 86 86 88 84 84 85 84 82 85 88 89 89 89 88 87
105 104 104 102 101 99 100 98 95 93 91 91 89 88 88 89 89 88 89 90 88 89 89 89 89 89 89 88 86 86 88 85 83 84 83 82 85 81 84 87 84 86 87
101 103 105 103 101 100 97 98 97 97 96 92 90 89 88 88 88 88 88 89 88 88 89 89 88 88 89 89 88 87 87 87 86 85 83 83 83 80 86 84 85 85 84
96 99 100 102 102 100 98 95 98 98 98 95 92 89 87 87 89 88 87 88 88 88 88 88 88 89 89 90 90 88 87 87 87 87 86 85 84 82 81 82 81 82 82
95 97 98 100 98 98 96 95 96 96 98 94 93 89 88 88 88 88 88 88 88 88 88 88 89 89 91 92 89 89 88 86 86 87 86 86 84 78 80 85 81 78 79
98 98 97 98 98 96 95 94 93 94 94 93 91 89 88 88 87 87 87 87 87 88 87 87 88 88 92 81 74 84 89 88 86 85 86 86 78 76 71 71 72 76 75
97 98 98 98 98 98 96 94 93 93 92 91 90 89 88 87 86 87 87 86 86 87 86 87 87 87 88 73 71 73 89 89 87 86 86 86 88 78 82 69 67 69 69
97 98 102 104 102 103 104 97 96 91 90 88 89 89 88 87 87 86 86 85 87 86 86 86 87 87 89 70 68 71 86 87 88 87 86 86 86 83 80 78 74 74 75
98 101 105 107 105 104 103 98 94 93 90 88 87 89 89 87 86 85 85 86 86 86 86 87 86 86 87 66 64 69 86 86 87 88 87 86 85 75 68 79 75 72 75
99 99 101 104 104 102 104 97 93 91 89 89 89 90 89 87 86 86 85 87 87 86 90 88 88 80 86 69 61 67 86 82 83 84 82 71 80 67 63 76 74 72 72
92 96 96 96 98 100 98 95 92 90 91 93 92 90 90 87 87 87 87 86 86 86 85 84 87 85 83 82 60 59 75 77 74 85 85 86 64 58 59 64 72 70 74
90 94 95 93 96 95 92 91 88 91 91 92 91 90 89 90 91 86 86 85 84 82 82 82 79 81 80 69 64 56 64 73 82 84 86 80 58 54 56 59 62 61 66
89 94 94 92 92 91 89 88 88 90 90 89 89 89 88 88 89 86 84 85 84 86 84 85 84 85 86 86 57 55 58 62 73 81 71 56 53 55 57 56 58 60 71
89 93 89 89 88 88 87 87 88 89 88 86 87 88 87 86 87 90 89 88 88 87 87 87 87 89 93 87 80 74 63 59 63 60 60 62 63 62 61 60 61 66 68
87 88 88 86 84 85 86 89 87 87 86 87 88 87 89 85 87 85 85 91 91 86 91 91 91 91 87 77 64 64 64 64 63 63 64 64 65 64 64 64 64 66 66
80 82 80 83 85 80 77 86 87 87 87 87 88 90 92 88 87 82 74 51 50 48 48 53 72 79 59 50 49 49 51 52 53 64 64 64 68 66 64 63 64 65 65